Probability
0 0 0 0 0 0 0 0 1 2 3 2 1 0 0 0 0 0 0 0 0 0 0 0 0 0 0 0 0 0 0 0 0 0 0 0 0 0 0 0 0 0 0
0 0 0 0 0 0 0 0 0 2 2 1 0 0 0 0 0 0 0 0 0 0 0 0 0 0 0 0 0 0 0 0 0 0 0 0 0 0 0 0 0 0 0
0 0 0 0 0 0 0 0 1 2 2 1 0 0 0 0 0 0 0 0 0 0 0 0 0 0 0 0 0 0 0 0 0 0 0 0 0 0 0 0 0 0 0
0 0 0 0 0 0 0 0 1 2 1 0 0 0 0 0 0 0 0 0 0 0 0 0 0 0 0 0 0 0 0 0 0 0 0 0 0 0 0 0 0 0 0
0 0 0 0 0 0 0 0 1 1 1 0 0 0 0 0 0 0 0 0 0 0 0 0 0 0 0 0 0 0 0 0 0 0 0 0 0 0 0 0 0 0 0
0 0 0 0 0 0 0 0 0 0 0 0 0 0 0 0 0 0 0 0 0 0 0 0 0 0 0 0 0 0 0 0 0 0 0 0 0 0 0 0 0 0 0
0 0 1 1 1 0 0 0 0 0 0 0 0 0 0 0 1 0 0 0 0 0 0 0 0 0 0 0 0 0 0 0 0 0 0 0 0 0 0 0 0 0 0
1 0 1 1 1 0 0 0 0 0 0 0 0 0 0 0 0 0 0 0 0 0 0 0 0 0 0 0 0 0 0 0 0 0 0 0 0 0 0 0 0 0 0
2 1 0 0 0 0 0 0 0 0 0 0 0 0 0 0 0 0 0 0 0 0 0 0 0 0 0 0 0 0 0 0 0 0 0 0 0 0 0 0 0 0 0
3 1 0 0 0 0 0 0 0 0 0 0 0 0 0 0 0 0 0 0 0 0 0 0 0 0 0 0 0 0 0 0 0 0 0 0 0 0 0 0 0 0 0
5 3 1 0 0 0 0 0 0 0 0 0 0 0 0 0 0 0 0 0 0 0 0 0 0 0 0 0 0 0 0 0 0 0 0 0 0 0 0 0 0 0 0
9 6 3 1 1 1 0 0 0 0 0 0 0 0 0 0 0 0 0 0 0 0 0 0 0 0 0 0 0 0 0 0 0 0 0 0 0 0 0 0 0 0 0
12 9 7 5 5 3 1 1 0 0 0 0 0 0 0 0 0 0 0 0 0 0 0 0 0 0 0 0 0 0 0 0 0 0 0 0 0 0 0 0 0 0 0
14 13 12 12 9 6 4 2 1 0 0 0 0 0 0 0 0 0 0 0 0 0 0 0 0 0 0 0 0 0 0 0 0 0 0 0 0 0 0 0 0 0 0
21 19 18 17 13 8 5 3 1 0 0 0 0 0 0 0 0 0 0 0 0 0 0 0 0 0 0 0 0 0 0 0 0 0 0 0 0 0 0 0 0 0 0
31 26 22 20 15 9 5 2 0 0 0 0 0 0 0 0 0 0 0 0 0 0 0 0 0 0 0 0 0 0 0 0 0 0 0 0 0 0 0 0 0 0 0
35 32 27 22 15 9 5 2 1 0 0 0 0 0 0 0 0 0 1 1 1 1 0 0 1 1 0 0 0 0 0 0 0 0 0 0 0 0 0 1 1 1 0
34 33 30 23 14 7 3 2 2 1 0 0 0 0 0 0 0 1 2 2 2 2 1 1 1 1 0 0 0 0 0 0 0 0 0 0 0 0 0 1 1 1 0
31 31 29 24 14 6 3 2 1 1 0 0 0 0 0 0 0 1 2 3 3 3 2 1 1 1 0 0 0 0 0 0 0 0 0 0 0 0 0 0 0 0 1
30 30 29 25 17 10 6 4 2 1 0 0 0 0 0 0 0 1 2 3 3 3 3 1 0 0 0 0 0 0 0 0 0 0 0 0 0 0 0 0 0 0 1
33 32 30 27 21 14 10 7 5 2 1 0 1 1 1 0 0 1 2 3 3 3 3 2 0 0 0 1 1 1 0 0 0 0 0 0 0 0 0 0 0 0 1
37 34 30 27 23 17 12 9 6 3 1 0 1 2 3 2 1 1 2 3 3 3 2 1 0 1 1 2 2 1 0 0 0 0 0 0 0 0 0 0 0 0 0
41 36 32 29 26 20 14 11 8 5 2 1 1 2 4 4 4 3 3 3 3 2 1 0 1 2 3 3 2 1 0 0 0 0 0 0 0 0 0 0 0 0 0
44 41 37 34 31 25 19 15 11 7 4 2 1 1 3 5 5 5 4 4 3 1 0 1 2 3 5 5 3 2 1 0 0 0 0 0 0 0 0 0 0 0 0
43 42 40 39 36 32 26 20 14 8 4 2 2 3 3 3 4 5 4 3 2 1 1 1 3 4 5 5 4 2 1 0 0 0 0 0 0 0 0 0 0 0 0
38 40 41 40 39 36 30 22 14 8 4 4 4 4 3 2 3 4 4 2 1 2 2 2 3 4 5 4 4 2 1 0 0 0 0 0 0 0 0 0 0 0 0
Wind_Speed
3 3 9 12 12 12 13 13 13 14 15 15 16 16 16 16 16 16 15 15 15 14 14 14 14 14 14 14 15 15 16 16 16 16 16 15 15 15 15 15 14 10 15
7 6 11 13 12 13 13 13 13 13 14 14 15 15 15 14 14 14 14 14 13 13 13 13 13 13 13 14 14 15 15 15 15 15 15 13 14 14 14 14 13 9 14
9 7 10 13 13 13 13 13 13 13 13 14 14 14 13 13 13 13 13 13 12 12 12 12 12 12 13 13 14 14 14 14 14 14 13 6 8 13 14 14 14 13 13
9 7 9 13 13 13 13 12 12 13 13 13 13 13 13 12 12 12 12 12 12 12 12 11 12 12 12 13 13 12 12 12 13 13 6 5 6 12 13 13 13 13 12
8 7 9 14 13 13 13 12 12 12 12 12 12 12 12 11 11 11 11 11 11 11 11 11 11 11 11 11 11 10 10 10 10 8 5 5 4 11 13 12 12 12 12
8 7 9 14 14 13 13 12 12 12 12 12 12 11 11 11 11 11 11 10 10 10 10 10 10 11 11 10 9 9 9 9 7 5 5 5 4 10 12 12 12 12 11
9 6 8 14 14 13 12 12 12 12 11 11 11 11 10 10 10 10 10 9 9 9 10 10 10 10 9 8 7 7 7 7 5 4 4 4 5 10 11 11 11 11 11
11 8 8 13 14 13 12 12 11 11 11 11 11 10 10 10 10 9 9 9 9 9 9 9 9 8 8 7 6 5 6 5 5 6 5 4 8 10 11 11 10 11 11
10 8 6 7 9 12 12 12 11 11 10 10 10 10 10 9 9 9 9 9 9 9 9 9 8 7 6 5 4 4 5 5 4 4 7 4 8 10 11 11 10 10 10
8 8 7 6 5 5 7 11 11 10 10 9 9 10 9 9 8 8 7 8 9 9 8 8 7 6 5 4 3 3 4 5 4 4 3 5 10 11 11 11 10 10 10
9 6 7 6 5 5 5 8 8 9 9 8 7 9 7 3 3 4 6 7 8 8 8 7 6 5 4 3 2 2 3 2 3 3 4 8 11 12 11 11 11 11 10
10 8 7 8 7 6 6 4 3 4 4 3 3 3 3 2 2 4 6 8 7 7 7 6 6 4 2 0 1 1 1 2 3 3 4 12 12 12 12 11 11 11 11
11 10 8 8 8 7 4 4 2 2 2 3 3 3 3 2 2 2 2 3 3 4 2 3 2 1 1 1 1 1 2 2 2 3 5 13 13 13 12 12 11 11 11
10 10 9 9 7 7 5 4 4 2 3 3 4 5 3 2 2 2 2 2 2 1 2 1 1 2 2 2 2 2 3 2 3 3 5 14 13 13 13 12 12 11 11
10 9 9 8 8 7 6 4 5 4 4 4 4 4 5 4 4 3 3 2 3 2 2 2 2 2 2 3 3 3 3 4 4 4 4 13 14 13 13 13 13 12 12
9 9 8 8 8 7 5 4 4 4 4 3 4 5 6 5 4 4 3 3 3 3 3 3 3 2 2 2 3 3 3 4 5 5 4 8 13 13 13 13 14 13 13
10 8 8 8 7 6 6 5 4 3 3 3 4 5 5 5 5 5 4 3 3 3 3 2 2 2 2 2 3 3 3 4 5 6 6 4 6 12 14 13 14 14 14
10 9 8 8 7 6 5 4 3 3 3 3 3 4 5 6 6 4 4 3 3 3 3 3 2 2 2 2 2 2 2 3 5 6 6 6 5 6 10 15 14 14 15
10 9 8 6 7 6 5 3 3 3 3 3 3 4 5 6 6 5 4 3 3 2 2 3 2 2 2 2 3 3 3 3 4 6 6 7 7 6 6 10 15 14 16
9 9 8 7 6 5 3 2 1 1 2 2 3 4 5 5 6 5 4 4 4 3 2 2 3 2 2 2 3 3 3 3 3 4 6 6 7 8 7 7 7 10 16
8 8 8 7 6 4 3 3 2 2 2 2 3 5 5 5 5 5 3 3 3 3 4 4 3 3 2 1 0 2 3 3 3 4 4 4 6 7 7 7 6 6 6
10 9 8 8 7 6 4 3 3 3 2 2 2 3 5 5 5 5 5 4 4 3 3 3 3 2 2 2 3 1 2 3 3 3 3 4 5 5 6 8 7 7 6
11 11 9 8 7 6 5 3 2 1 0 0 1 2 3 4 4 4 5 4 4 4 4 4 4 4 3 2 3 3 3 3 3 3 3 4 3 3 5 5 8 8 8
12 10 9 8 7 6 6 5 5 4 3 3 2 2 3 3 4 4 5 5 4 3 4 4 4 3 3 3 2 3 3 4 2 3 3 2 3 4 5 5 6 7 8
11 10 9 8 7 7 6 6 5 4 3 2 2 2 2 2 3 3 4 4 4 4 4 4 3 4 3 4 3 2 2 2 3 3 4 3 2 3 4 4 4 4 6
9 9 9 9 8 7 7 6 6 5 4 3 3 3 2 1 2 2 3 3 4 3 4 4 4 4 4 4 3 3 3 3 3 3 4 4 3 3 3 3 3 4 5
Wind_Direction
156 147 122 113 110 106 104 102 101 100 99 99 99 100 102 104 106 108 110 112 113 112 111 111 112 112 114 115 117 118 118 118 117 116 116 115 115 117 115 112 110 109 112
151 144 125 119 115 111 108 106 105 105 103 102 102 103 105 107 108 110 112 114 116 116 115 113 114 115 116 117 118 118 118 120 120 119 116 114 114 116 119 116 116 118 117
139 136 127 122 119 115 112 111 110 109 108 107 106 106 107 109 110 112 113 115 117 118 117 118 118 119 120 120 120 121 121 121 121 118 110 101 111 117 120 121 121 120 119
137 134 131 126 123 118 116 115 116 115 114 113 112 113 112 113 113 114 115 116 119 121 122 122 124 125 125 124 124 125 126 125 124 120 111 110 114 119 120 122 123 122 121
131 130 135 131 127 124 121 120 120 119 118 116 117 118 117 117 117 117 118 120 122 125 127 129 131 130 128 126 127 129 132 131 124 116 113 111 113 125 126 128 127 126 124
132 133 139 134 131 128 125 124 124 123 122 121 121 121 122 122 120 120 121 124 126 128 131 133 136 135 133 133 134 132 133 130 117 113 118 123 126 133 133 134 132 130 130
137 137 139 137 134 132 131 130 129 127 126 125 124 124 124 124 124 124 125 127 129 132 133 135 139 141 141 140 143 140 139 135 126 128 131 133 142 141 138 136 136 137 135
140 139 140 141 139 137 135 135 134 132 131 130 129 128 129 129 128 128 129 131 133 136 137 138 142 146 146 146 144 141 142 140 136 144 142 143 148 145 143 140 140 142 140
143 143 141 143 142 142 141 140 139 138 137 137 137 136 136 136 135 135 136 136 137 137 140 143 148 150 151 153 149 143 148 137 125 138 147 148 152 153 152 151 149 148 148
148 151 149 146 143 144 144 147 146 146 145 146 147 145 145 145 144 144 142 144 145 144 147 149 154 156 161 168 164 152 142 124 130 140 142 160 162 162 160 160 159 157 156
158 162 159 157 156 153 154 158 155 155 155 154 154 153 147 136 137 147 154 155 155 155 157 157 160 167 174 183 184 165 136 124 139 154 158 168 169 168 167 167 166 167 167
170 176 171 167 168 169 168 153 157 162 159 160 164 160 147 152 166 166 168 167 165 165 165 165 171 179 181 183 214 193 140 146 143 164 174 173 174 173 172 172 172 173 173
171 172 173 171 170 173 166 160 173 174 171 182 186 180 164 159 171 173 163 171 176 174 165 167 170 175 183 207 224 207 187 166 162 178 184 180 179 179 178 179 179 180 179
164 171 170 171 169 171 166 173 177 182 184 194 193 183 167 163 171 177 175 178 181 172 173 187 192 204 216 227 226 221 207 183 179 178 187 184 184 185 184 184 184 186 187
155 161 165 164 163 165 165 180 178 191 194 194 184 182 172 171 176 176 183 189 193 186 185 196 206 209 219 232 231 216 200 188 184 183 189 190 189 190 191 189 190 193 194
156 157 158 157 158 156 162 167 168 181 191 189 186 184 176 173 173 173 181 189 198 197 199 196 202 209 221 226 234 223 203 185 191 190 190 194 196 195 197 197 198 200 202
159 159 160 160 158 158 162 165 159 168 175 184 190 186 179 174 173 173 177 188 199 193 190 188 201 211 220 225 237 232 214 196 190 195 194 196 201 204 204 206 206 207 209
157 160 168 166 161 167 170 170 160 163 167 183 185 182 182 177 176 175 178 192 196 182 176 179 187 201 225 224 236 241 224 208 202 201 198 199 199 206 212 214 215 215 215
163 162 167 163 165 172 174 174 171 167 177 187 182 180 184 182 180 178 186 192 185 174 185 195 184 190 207 223 236 241 236 220 211 210 203 204 203 206 208 217 219 220 221
164 163 162 164 171 170 167 163 164 160 185 186 185 191 187 186 184 181 190 194 178 170 190 192 191 199 202 210 245 251 247 233 220 214 213 209 208 212 210 214 217 224 226
163 164 164 164 176 166 163 171 172 194 201 202 206 201 194 192 186 181 186 184 178 181 197 197 185 194 210 173 127 309 304 272 243 234 221 211 215 215 207 209 212 216 226
173 174 172 172 177 179 181 178 177 177 199 202 212 201 196 193 188 185 183 184 184 185 197 199 187 177 210 177 161 153 316 324 295 247 231 222 222 211 210 213 211 213 218
180 181 181 180 180 184 179 163 155 125 61 194 213 205 205 188 189 189 189 188 190 188 200 205 193 186 207 220 182 162 176 237 289 295 246 229 215 209 220 218 214 214 214
187 183 179 178 178 182 175 171 176 183 195 212 204 203 209 197 195 198 197 194 191 190 200 213 197 189 188 214 227 212 196 181 192 294 307 270 236 223 222 226 224 216 213
182 180 179 175 179 183 181 179 181 191 198 201 194 193 205 209 209 208 200 195 194 197 203 210 200 201 198 202 208 211 217 215 195 200 272 292 293 256 235 227 225 222 218
177 178 176 176 184 183 183 182 186 191 189 185 196 199 210 215 227 226 204 198 200 200 206 210 208 212 215 214 210 201 198 204 205 200 233 253 261 266 253 239 230 225 223